Total_Precipitation_Accumulation
0.46 0.56 0.62 0.67 0.71 0.67 0.77 0.85 0.88 0.81 0.88 0.96 0.91 0.89 0.94 0.96 0.89 0.76 0.64 0.58 0.50 0.42 0.40 0.40 0.42 0.46 0.53 0.60 0.68 0.76 0.85 1.01 1.18 1.33 1.54 1.84 2.17 2.48
0.60 0.64 0.65 0.69 0.78 0.72 0.76 0.83 0.86 0.91 0.95 0.88 0.80 0.80 0.77 0.66 0.63 0.58 0.54 0.58 0.48 0.39 0.34 0.34 0.36 0.39 0.42 0.46 0.50 0.55 0.60 0.64 0.69 0.74 0.84 1.01 1.24 1.58
0.78 0.80 0.82 0.84 0.87 0.84 0.89 0.89 0.84 0.91 0.91 0.77 0.84 0.90 0.79 0.62 0.50 0.48 0.48 0.52 0.49 0.46 0.40 0.36 0.32 0.30 0.32 0.36 0.40 0.45 0.48 0.51 0.55 0.55 0.55 0.58 0.63 0.74
0.91 1.11 1.12 1.11 1.03 0.94 1.01 0.98 0.93 1.06 1.00 0.90 0.99 1.02 0.97 0.77 0.63 0.53 0.44 0.44 0.48 0.48 0.43 0.40 0.36 0.31 0.28 0.28 0.29 0.31 0.32 0.34 0.37 0.39 0.38 0.38 0.39 0.41
0.97 1.10 1.20 1.30 1.19 1.09 1.07 1.05 1.06 1.14 1.13 1.02 1.04 1.18 1.20 1.01 0.79 0.57 0.42 0.44 0.43 0.47 0.44 0.39 0.38 0.37 0.34 0.29 0.27 0.26 0.25 0.25 0.26 0.27 0.28 0.30 0.30 0.29
0.99 0.92 1.00 1.24 1.34 1.28 1.15 1.08 1.11 1.16 1.16 1.14 1.17 1.31 1.36 1.28 1.06 0.77 0.59 0.51 0.43 0.41 0.47 0.42 0.38 0.36 0.34 0.31 0.28 0.27 0.27 0.26 0.24 0.23 0.25 0.25 0.24 0.24
0.80 0.74 0.75 0.91 1.15 1.31 1.23 1.16 1.16 1.14 1.14 1.21 1.27 1.36 1.38 1.43 1.27 1.00 0.79 0.67 0.53 0.46 0.51 0.47 0.43 0.38 0.36 0.36 0.32 0.28 0.26 0.24 0.23 0.23 0.23 0.23 0.22 0.21
0.76 0.75 0.66 0.60 0.68 0.89 1.08 1.21 1.27 1.19 1.13 1.20 1.31 1.35 1.36 1.36 1.34 1.17 0.95 0.76 0.62 0.53 0.59 0.55 0.54 0.50 0.41 0.36 0.35 0.31 0.27 0.25 0.25 0.23 0.22 0.22 0.22 0.22
0.73 0.73 0.60 0.51 0.59 0.62 0.77 0.89 1.01 1.06 1.05 1.10 1.18 1.27 1.37 1.48 1.48 1.29 1.10 0.95 0.75 0.64 0.67 0.60 0.56 0.57 0.52 0.45 0.46 0.37 0.32 0.28 0.25 0.25 0.25 0.24 0.23 0.24
0.73 0.74 0.71 0.64 0.62 0.66 0.70 0.71 0.74 0.80 0.85 0.88 0.98 1.14 1.33 1.51 1.64 1.53 1.38 1.13 0.93 0.83 0.82 0.68 0.55 0.53 0.51 0.52 0.53 0.46 0.38 0.33 0.28 0.25 0.26 0.26 0.24 0.24
0.84 0.82 0.80 0.74 0.73 0.62 0.63 0.67 0.68 0.72 0.74 0.79 0.84 0.99 1.24 1.44 1.52 1.53 1.42 1.22 1.00 0.85 0.82 0.79 0.62 0.56 0.54 0.48 0.47 0.49 0.43 0.39 0.37 0.31 0.27 0.27 0.29 0.28
0.97 0.94 0.85 0.75 0.69 0.59 0.59 0.67 0.66 0.67 0.74 0.76 0.79 0.81 0.90 1.18 1.44 1.30 1.23 1.17 1.02 0.83 0.66 0.70 0.68 0.67 0.59 0.44 0.39 0.41 0.39 0.39 0.41 0.39 0.35 0.31 0.33 0.29
1.03 0.98 0.94 0.81 0.63 0.57 0.57 0.63 0.63 0.68 0.80 0.83 0.83 0.85 0.92 1.02 1.19 1.22 1.14 1.06 1.00 0.81 0.65 0.63 0.59 0.61 0.56 0.41 0.31 0.31 0.32 0.30 0.29 0.35 0.40 0.40 0.36 0.31
1.05 1.07 1.07 0.90 0.66 0.54 0.46 0.43 0.41 0.41 0.54 0.67 0.73 0.76 0.79 0.88 0.99 1.13 1.16 1.12 1.00 0.88 0.80 0.77 0.63 0.56 0.51 0.41 0.32 0.27 0.28 0.29 0.30 0.29 0.34 0.47 0.46 0.42
0.88 0.98 0.91 0.76 0.63 0.51 0.42 0.38 0.35 0.34 0.44 0.54 0.61 0.65 0.66 0.74 0.97 1.24 1.38 1.40 1.29 1.05 0.93 0.87 0.78 0.66 0.63 0.50 0.38 0.31 0.28 0.28 0.29 0.33 0.34 0.39 0.45 0.44
0.73 0.75 0.75 0.74 0.72 0.67 0.55 0.45 0.38 0.39 0.45 0.52 0.62 0.73 0.82 0.91 1.02 1.17 1.35 1.40 1.38 1.18 0.98 0.93 0.87 0.85 0.75 0.58 0.50 0.41 0.33 0.29 0.28 0.32 0.38 0.39 0.45 0.53
0.75 0.82 0.83 0.89 0.92 0.92 0.85 0.76 0.70 0.67 0.62 0.63 0.75 0.88 0.93 0.98 1.02 1.12 1.26 1.29 1.19 1.08 0.95 0.87 0.92 0.92 0.87 0.77 0.63 0.48 0.41 0.34 0.31 0.37 0.47 0.47 0.45 0.49
0.61 0.77 0.89 0.98 1.06 1.08 1.09 1.02 0.93 0.85 0.78 0.80 0.86 0.95 0.99 1.00 1.03 1.14 1.25 1.26 1.13 1.01 0.97 0.84 0.85 0.96 0.93 0.81 0.66 0.57 0.49 0.43 0.40 0.46 0.53 0.53 0.48 0.45
0.45 0.61 0.77 0.90 1.02 1.08 1.10 1.04 0.98 0.93 0.91 0.93 0.98 1.02 1.06 1.07 1.08 1.10 1.19 1.23 1.14 1.04 1.01 0.99 0.91 0.89 0.85 0.65 0.49 0.48 0.52 0.49 0.52 0.55 0.56 0.54 0.47 0.45
0.38 0.49 0.63 0.77 0.92 1.06 1.12 1.09 1.06 1.05 0.98 0.96 1.04 1.06 1.10 1.13 1.11 1.07 1.11 1.19 1.17 1.11 1.05 0.99 0.93 0.83 0.75 0.67 0.55 0.47 0.49 0.58 0.62 0.61 0.59 0.60 0.58 0.57
0.44 0.49 0.55 0.66 0.84 1.02 1.12 1.17 1.18 1.12 1.01 1.00 1.03 1.08 1.09 1.13 1.11 1.05 1.10 1.20 1.21 1.15 1.00 0.82 0.76 0.87 0.94 0.98 0.82 0.54 0.49 0.56 0.67 0.74 0.77 0.79 0.73 0.69
0.53 0.55 0.58 0.67 0.83 1.01 1.11 1.16 1.20 1.15 1.09 1.07 1.05 1.10 1.12 1.13 1.12 1.08 1.08 1.15 1.12 1.08 0.99 0.94 1.04 1.19 1.22 1.09 0.84 0.69 0.66 0.67 0.72 0.78 0.79 0.80 0.80 0.73
0.67 0.63 0.63 0.69 0.81 0.95 1.04 1.08 1.14 1.13 1.08 1.07 1.06 1.09 1.13 1.14 1.19 1.19 1.13 1.14 1.15 1.19 1.26 1.23 1.21 1.23 1.21 1.14 1.01 0.90 0.81 0.77 0.77 0.78 0.70 0.68 0.66 0.64